Weather WX

World > North America > United States > Oregon

Ironside, Oregon Regional Weather

Lat: 44.33N, Lon: 117.93W
Wx Zone: ORZ063
Feedback

Ironside, OR Regional Weather

Expires:201906192200;;749680
ASUS46 KPQR 192110
RWROR 

OREGON REGIONAL WEATHER ROUNDUP
NATIONAL WEATHER SERVICE PORTLAND OR
200 PM PDT WED JUN 19 2019

NOTE: "FAIR" INDICATES FEW OR NO CLOUDS BELOW 12,000 FEET WITH
NO SIGNIFICANT WEATHER AND/OR OBSTRUCTIONS TO VISIBILITY.


ORZ029>031-041-044-049-050-061>064-502-503-505>511-192200-
EASTERN OREGON

  
CITY           SKY/WX    TMP DP  RH WIND       PRES   REMARKS
MADRAS         SUNNY     68  34  28 NW18G29   30.13F                  
REDMOND        SUNNY     73  27  18 W15G24    30.11F                  
BEND           SUNNY     72  27  18 W16G24    30.12F                  
PRINEVILLE     SUNNY     70  27  19 NW16G23   30.10F                  
KLAMATH FALLS  SUNNY     79  29  16 NW10G17   30.11F                  
LAKEVIEW       SUNNY     76  36  23 SE6       30.10F                  
HERMISTON      SUNNY     76  37  24 SW18G28   30.00F                  
PENDLETON      SUNNY     73  33  23 W25G32    30.02F                  
JOHN DAY       SUNNY     70  22  16 W21G31    30.07F                  
MEACHAM        SUNNY     63  31  30 VRB5      30.07F                  
LA GRANDE      SUNNY     70  33  25 NW21G26   30.03F                  
BAKER CITY     SUNNY     72  37  28 NW13G21   30.02F                  
BURNS          SUNNY     73  23  15 NW18G25   30.07F                  
ROME             N/A     82  22  11 NW15G22   30.01F                  
ONTARIO        SUNNY     83  22  10 NW20      29.95F                  
$$
  

SKY/WX - Weather  TMP - Temperature  DP - Dew Point  RH - Relative Humidity
WIND - Wind Direction/Speed PRES - Barometric Pressure VSB - Visibility
WCI - Wind Chill Index E13G22 Wind - East Wind 13 mph/Gusts of 22 mph